[[{"header":{"parameterUnit":"m.s-1","parameterCategory":1,"la1":30.2991,"la2":30.254,"lo1":-89.0895,"lo2":-89.0444,"dy":0.0017,"dx":0.0017,"nx":28,"ny":28,"refTime":"2024-03-04T09:00:00:Z","depth":0,"parameterNumber":2,"parameterNumberName":"U-component_of_WINDS"},"data":[0,0,0,0,0,0,0,0,0,0,0,0,0,0,0,0,0,0,0,0,0,0,0,0,0,0,0,0,0,0,0,0,0,0,0,0,0,0,0,0,0,0,0,0,0,0,0,0,0,0,0,0,0,0,0,0,0,0,-1.5063,-1.5063,0,-1.5035,-1.5035,-1.5035,-1.4981,-1.4979,-1.4978,-1.4977,-1.4953,-1.4954,-1.4954,0,0,0,0,0,0,0,0,0,0,0,0,0,-1.5074,-1.5074,-1.5063,-1.5063,-1.5062,-1.5035,-1.5035,-1.5034,-1.4981,-1.4979,-1.4978,-1.4977,-1.4953,-1.4954,-1.4954,0,0,0,0,0,0,0,0,0,0,0,0,0,-1.506,-1.5074,-1.5063,-1.5032,-1.5029,-1.5035,-1.5035,-1.5034,-1.4981,-1.4979,-1.4978,-1.4976,-1.4953,-1.4954,-1.4954,-1.4989,0,0,-1.4956,-1.4956,0,0,0,0,0,0,0,0,-1.5061,-1.506,-1.5037,-1.5034,-1.5031,-1.501,-1.503,-1.5019,-1.4981,-1.4999,-1.4977,-1.4976,-1.4974,-1.4972,-1.4971,-1.4988,-1.4987,-1.4956,-1.4956,-1.4956,-1.4956,0,0,0,0,0,0,0,-1.5062,-1.5061,-1.5052,-1.5037,-1.5033,-1.5021,-1.5017,-1.5027,-1.4996,-1.4998,-1.4994,-1.4991,-1.4972,-1.497,-1.497,-1.4987,-1.4956,-1.4956,-1.4957,-1.4957,-1.5033,-1.5035,0,0,0,0,0,0,-1.5067,-1.5062,-1.5053,-1.5051,-1.5042,-1.5022,-1.5018,-1.5018,-1.4996,-1.4991,-1.4992,-1.4988,-1.497,-1.4969,-1.4969,-1.501,-1.4956,-1.4957,-1.4957,-1.5032,-1.5034,-1.5036,0,0,0,0,0,0,-1.5067,-1.5066,-1.5054,-1.5055,-1.5053,-1.5024,-1.5024,-1.5018,-1.5017,-1.4992,-1.4986,-1.4997,-1.4969,-1.4968,-1.4985,-1.5008,-1.4957,-1.4957,-1.503,-1.5032,-1.5035,-1.5092,0,0,0,0,0,0,-1.5068,-1.5067,-1.5079,-1.5056,-1.5053,-1.507,-1.5026,-1.5019,-1.5018,-1.5012,-1.4994,-1.499,-1.4968,-1.4984,-1.4985,-1.5008,-1.4958,-1.5027,-1.5031,-1.5034,-1.5088,-1.5096,-1.5103,0,0,0,0,0,-1.5068,-1.5097,-1.508,-1.5079,-1.5067,-1.5071,-1.5069,-1.5042,-1.502,-1.5033,-1.5016,-1.499,-1.5005,-1.4986,-1.4987,-1.5011,-1.5026,-1.503,-1.5034,-1.5084,-1.5095,-1.5103,0,0,0,0,0,0,-1.5126,-1.5094,-1.5074,-1.5096,-1.5087,-1.5062,-1.5077,-1.5054,-1.5051,-1.5047,-1.5014,-1.5011,-1.5032,-1.5022,-1.5002,-1.5044,-1.5011,-1.5016,-1.505,-1.5059,-1.5067,-1.507,-1.4958,0,0,0,0,0,-1.5141,-1.5145,-1.5117,-1.5139,-1.5135,-1.5107,-1.5108,-1.5087,-1.5076,-1.5073,-1.5057,-1.5049,-1.5052,-1.5055,-1.5056,-1.5085,-1.5082,-1.5102,-1.511,-1.5116,-1.5121,-1.5137,-1.5146,-1.5048,-1.5048,-1.5048,0,0,-1.5172,-1.5155,-1.516,-1.515,-1.514,-1.5147,-1.5104,-1.5113,-1.5118,-1.5074,-1.5089,-1.5078,-1.5066,-1.509,-1.51,-1.5083,-1.5147,-1.5121,-1.5126,-1.5128,-1.5142,-1.5152,-1.516,-1.5051,-1.505,-1.505,0,0,-1.5234,-1.522,-1.5238,-1.5228,-1.5213,-1.5194,-1.5198,-1.5177,-1.5167,-1.5181,-1.5149,-1.5155,-1.516,-1.5154,-1.5151,-1.5209,-1.5186,-1.521,-1.5252,-1.5268,-1.5276,-1.5282,-1.5305,-1.5313,-1.5215,-1.5215,-1.5215,0,-1.5276,-1.5283,-1.525,-1.5261,-1.5258,-1.5217,-1.5235,-1.5228,-1.5215,-1.5215,-1.5195,-1.5201,-1.5191,-1.5213,-1.5227,-1.5226,-1.5231,-1.5213,-1.5277,-1.5283,-1.5289,-1.531,-1.5319,-1.5218,-1.5218,-1.5217,-1.5217,0,-1.5336,-1.5341,-1.5357,-1.5344,-1.5343,-1.5357,-1.5328,-1.5331,-1.5311,-1.5294,-1.531,-1.5295,-1.5293,-1.5296,-1.5277,-1.5316,-1.5306,-1.5282,-1.5249,-1.5302,-1.5322,-1.5329,-1.5223,-1.5221,-1.5221,-1.522,0,0,-1.5435,-1.5402,-1.5409,-1.5403,-1.5382,-1.5387,-1.54,-1.5396,-1.54,-1.5392,-1.5403,-1.5408,-1.5385,-1.5383,-1.5362,-1.5376,-1.5425,-1.535,-1.535,-1.5366,-1.5469,-1.549,-1.5499,-1.5408,-1.541,-1.5411,-1.5471,0,-1.5494,-1.5513,-1.5484,-1.5511,-1.5516,-1.5476,-1.5488,-1.5477,-1.5462,-1.5466,-1.5449,-1.5454,-1.5422,-1.5421,-1.5432,-1.5417,-1.5446,-1.5411,-1.5421,-1.5422,-1.5427,-1.5509,-1.553,-1.5588,-1.5478,-1.5479,-1.548,0,-1.5566,-1.556,-1.5587,-1.5565,-1.5566,-1.5576,-1.5571,-1.5574,-1.5562,-1.5549,-1.5546,-1.552,-1.5533,-1.5499,-1.5517,-1.5495,-1.5496,-1.5489,-1.5491,-1.5493,-1.5456,-1.5516,-1.5606,-1.5616,-1.5492,-1.5491,-1.549,0,-1.5639,-1.5637,-1.5653,-1.5648,-1.5623,-1.5631,-1.5621,-1.5607,-1.5606,-1.5602,-1.5602,-1.5599,-1.5598,-1.5598,-1.5573,-1.555,-1.5595,-1.5558,-1.5587,-1.5588,-1.5601,-1.5601,-1.5695,-1.5598,-1.5597,-1.5597,-1.5597,0,-1.571,-1.5728,-1.5685,-1.5696,-1.5716,-1.5681,-1.5703,-1.5688,-1.5676,-1.5684,-1.5649,-1.5657,-1.5623,-1.5628,-1.5609,-1.5628,-1.5627,-1.5619,-1.5614,-1.5624,-1.5625,-1.5627,-1.5623,-1.56,-1.5599,-1.5599,-1.5598,0,-1.5796,-1.5768,-1.5783,-1.5756,-1.5749,-1.5766,-1.5743,-1.5753,-1.5734,-1.5744,-1.5745,-1.5716,-1.5721,-1.5695,-1.5695,-1.5682,-1.5711,-1.5698,-1.5715,-1.5712,-1.5744,-1.5742,-1.5844,-1.5857,-1.5749,-1.575,-1.5751,0,-1.5845,-1.5858,-1.5832,-1.5833,-1.5825,-1.5828,-1.5827,-1.5794,-1.5794,-1.578,-1.5792,-1.5792,-1.5792,-1.5801,-1.5781,-1.5781,-1.577,-1.5805,-1.577,-1.5779,-1.5773,-1.5774,-1.5776,-1.5814,-1.5815,-1.5816,-1.5817,0,-1.5935,-1.592,-1.5919,-1.5913,-1.5912,-1.5906,-1.5898,-1.5902,-1.5866,-1.5868,-1.5871,-1.587,-1.5869,-1.5871,-1.5867,-1.5858,-1.5833,-1.5827,-1.5835,-1.5846,-1.5857,-1.5854,-1.5739,-1.5826,-1.5825,-1.5825,-1.5824,-1.5824,-1.6006,-1.6016,-1.5999,-1.5999,-1.5989,-1.5982,-1.5989,-1.597,-1.5971,-1.5967,-1.5947,-1.5954,-1.5941,-1.5932,-1.5925,-1.5931,-1.5915,-1.5924,-1.5927,-1.5931,-1.5938,-1.5853,-1.593,-1.593,-1.5929,-1.5929,-1.5929,0,-1.6097,-1.6083,-1.6083,-1.6072,-1.6072,-1.6044,-1.6034,-1.6037,-1.6043,-1.6031,-1.6031,-1.6034,-1.6036,-1.6015,-1.6014,-1.6023,-1.6012,-1.6025,-1.6025,-1.6024,-1.5951,-1.5946,-1.6034,-1.6034,-1.6034,-1.6034,-1.6034,-1.6034,-1.6145,-1.616,-1.6143,-1.6154,-1.614,-1.6145,-1.6141,-1.6135,-1.6126,-1.6131,-1.6132,-1.6117,-1.6103,-1.61,-1.6101,-1.6095,-1.6098,-1.6115,-1.6106,-1.6039,-1.6029,-1.6019,-1.6015,-1.6115,-1.6115,-1.6178,-1.6179,-1.6179]},{"header":{"parameterUnit":"m.s-1","parameterCategory":1,"la1":30.2991,"la2":30.254,"lo1":-89.0895,"lo2":-89.0444,"dy":0.0017,"dx":0.0017,"nx":28,"ny":28,"refTime":"2024-03-04T09:00:00:Z","depth":0,"parameterNumber":3,"parameterNumberName":"V-component_of_WINDS"},"data":[0,0,0,0,0,0,0,0,0,0,0,0,0,0,0,0,0,0,0,0,0,0,0,0,0,0,0,0,0,0,0,0,0,0,0,0,0,0,0,0,0,0,0,0,0,0,0,0,0,0,0,0,0,0,0,0,0,0,5.0429,5.043,0,5.0447,5.0447,5.0447,5.0409,5.0407,5.0406,5.0405,5.0419,5.0421,5.0422,0,0,0,0,0,0,0,0,0,0,0,0,0,5.0362,5.0364,5.0429,5.043,5.043,5.0447,5.0447,5.0447,5.0409,5.0407,5.0406,5.0405,5.0419,5.042,5.0422,0,0,0,0,0,0,0,0,0,0,0,0,0,5.0387,5.0364,5.0429,5.0413,5.0412,5.0447,5.0447,5.0447,5.0409,5.0407,5.0406,5.0404,5.0418,5.042,5.0422,5.0473,0,0,5.0429,5.043,0,0,0,0,0,0,0,0,5.0385,5.0389,5.0415,5.0414,5.0413,5.0424,5.0429,5.0456,5.041,5.041,5.0405,5.0403,5.0422,5.0424,5.0431,5.0474,5.0475,5.043,5.0431,5.0432,5.0433,0,0,0,0,0,0,0,5.0384,5.0388,5.0436,5.0416,5.0414,5.0404,5.0406,5.0434,5.0426,5.041,5.0407,5.041,5.0421,5.0429,5.0431,5.0475,5.043,5.0432,5.0433,5.0434,5.0564,5.0566,0,0,0,0,0,0,5.0385,5.0387,5.0436,5.0437,5.0394,5.0407,5.0409,5.0422,5.0426,5.0424,5.0411,5.0408,5.0426,5.0428,5.0431,5.0493,5.0432,5.0434,5.0435,5.0562,5.0565,5.0567,0,0,0,0,0,0,5.0383,5.0389,5.0435,5.0411,5.0416,5.041,5.0426,5.0423,5.0431,5.0427,5.0425,5.0421,5.0424,5.0428,5.0464,5.0493,5.0435,5.0437,5.056,5.0563,5.0566,5.0616,0,0,0,0,0,0,5.0381,5.0389,5.0408,5.0412,5.0418,5.0468,5.0427,5.0425,5.0436,5.0431,5.0435,5.0434,5.0423,5.0461,5.0467,5.0495,5.0439,5.0557,5.0561,5.0565,5.0612,5.0621,5.0628,0,0,0,0,0,5.0379,5.042,5.0409,5.0415,5.0442,5.0469,5.0473,5.046,5.0438,5.0458,5.0456,5.0434,5.0489,5.0465,5.0471,5.0501,5.0555,5.056,5.0564,5.0608,5.0619,5.0628,0,0,0,0,0,0,5.0416,5.042,5.0408,5.0451,5.0461,5.0463,5.0486,5.0472,5.0486,5.0482,5.0465,5.0466,5.0506,5.0507,5.048,5.0552,5.0518,5.0525,5.055,5.056,5.0568,5.0567,5.0441,0,0,0,0,0,5.043,5.0453,5.0455,5.0493,5.0498,5.0492,5.0504,5.0494,5.0503,5.0506,5.0506,5.0514,5.0534,5.0547,5.0564,5.0612,5.0614,5.0636,5.0644,5.0651,5.0656,5.0684,5.0695,5.0582,5.0582,5.0582,0,0,5.0457,5.0462,5.0477,5.05,5.0506,5.0531,5.0495,5.0522,5.054,5.0509,5.0544,5.0546,5.0554,5.0597,5.0616,5.0599,5.0688,5.0657,5.0662,5.0664,5.069,5.0701,5.0711,5.0586,5.0585,5.0585,0,0,5.052,5.0526,5.056,5.0568,5.0579,5.0576,5.0584,5.059,5.059,5.0626,5.0604,5.0626,5.0659,5.0667,5.0675,5.0747,5.0729,5.0753,5.0795,5.0823,5.0832,5.084,5.0867,5.0877,5.0759,5.0759,5.0759,0,5.0552,5.0589,5.0578,5.0608,5.062,5.0597,5.0631,5.0639,5.0655,5.0664,5.0645,5.0689,5.0693,5.0739,5.0757,5.0764,5.0774,5.0752,5.0832,5.0839,5.0847,5.0872,5.0882,5.0762,5.0761,5.0761,5.0761,0,5.063,5.0656,5.0682,5.0701,5.0716,5.0747,5.0742,5.0758,5.0749,5.0747,5.0785,5.079,5.081,5.082,5.0809,5.0866,5.0855,5.0835,5.08,5.0861,5.0884,5.0894,5.0766,5.0765,5.0764,5.0763,0,0,5.0712,5.0729,5.0739,5.0749,5.0762,5.0782,5.0814,5.0836,5.0851,5.0863,5.089,5.0922,5.0904,5.0914,5.0904,5.0929,5.0988,5.0905,5.0905,5.0922,5.1053,5.1069,5.108,5.0977,5.0979,5.098,5.1053,0,5.0776,5.0832,5.0826,5.088,5.0906,5.0886,5.0915,5.0926,5.0927,5.0948,5.0948,5.0972,5.0946,5.0952,5.0976,5.0976,5.1014,5.0971,5.1002,5.1003,5.1,5.1092,5.1108,5.1176,5.1062,5.1063,5.1064,0,5.0856,5.0876,5.0933,5.0947,5.0957,5.0982,5.1004,5.1025,5.1038,5.1037,5.1051,5.1039,5.1072,5.1038,5.1084,5.1055,5.1068,5.107,5.1073,5.1075,5.1037,5.1097,5.1197,5.1208,5.1079,5.1078,5.1077,0,5.0913,5.0953,5.0994,5.1003,5.1019,5.1038,5.1045,5.1057,5.1072,5.109,5.11,5.1121,5.1133,5.115,5.1144,5.112,5.1193,5.1158,5.1193,5.1193,5.1208,5.1207,5.1312,5.1216,5.1216,5.1216,5.1215,0,5.0984,5.102,5.102,5.1045,5.1086,5.1079,5.112,5.1124,5.1136,5.1162,5.1146,5.117,5.1161,5.1186,5.1181,5.1221,5.1226,5.1227,5.1225,5.1228,5.1228,5.1236,5.1231,5.1218,5.1218,5.1217,5.1217,0,5.1053,5.1054,5.1098,5.1111,5.1116,5.1145,5.1157,5.1181,5.1182,5.1215,5.1223,5.1224,5.1252,5.1249,5.1279,5.1276,5.1327,5.1319,5.1323,5.1321,5.1357,5.1354,5.147,5.1485,5.1379,5.138,5.1381,0,5.1098,5.1126,5.1144,5.1162,5.1172,5.1199,5.1216,5.1211,5.1229,5.1249,5.1271,5.1299,5.132,5.1366,5.1369,5.1393,5.1386,5.1426,5.1389,5.1393,5.1388,5.1387,5.139,5.1432,5.1434,5.1434,5.1435,0,5.1179,5.1179,5.1204,5.1231,5.1252,5.1272,5.129,5.1305,5.1303,5.1324,5.1354,5.1371,5.1405,5.1432,5.1456,5.1463,5.1449,5.1447,5.1457,5.146,5.1462,5.1463,5.1343,5.1444,5.1443,5.1442,5.1442,5.1442,5.1237,5.1263,5.1282,5.1311,5.1326,5.1344,5.1369,5.1375,5.1401,5.1429,5.1425,5.146,5.1476,5.1507,5.1517,5.1543,5.1529,5.1542,5.1546,5.1549,5.1554,5.1458,5.1547,5.1547,5.1547,5.1547,5.1546,0,5.1318,5.1331,5.1358,5.1387,5.1411,5.1399,5.142,5.144,5.1471,5.1489,5.1512,5.1548,5.1576,5.1584,5.1611,5.1631,5.1626,5.1638,5.1636,5.1639,5.1565,5.1554,5.1642,5.1642,5.1642,5.1642,5.1642,5.1642,5.1363,5.1407,5.1411,5.1462,5.1474,5.1509,5.1523,5.1541,5.1555,5.1597,5.1621,5.1627,5.1641,5.167,5.1696,5.1697,5.1708,5.1724,5.1723,5.1653,5.1644,5.1634,5.1625,5.1726,5.1726,5.1795,5.1795,5.1796]}]]